Location: Black Kettle National Grasslands
(35.7000°N, 99.8000°W)
Time: 09:15:12
(UTC-05:00)

N. Korean satellite - Visible Passes

Search period start: 23 September 2019 00:00
Search period end: 03 October 2019 00:00
Orbit: 455 x 509 km, 97.2° (Epoch: 22 September)

Date Brightness Start Highest point End Pass type
(mag) Time Alt. Az. Time Alt. Az. Time Alt. Az.
23 Sep 10.0 06:39:10 10° ENE 06:40:55 13° E 06:42:40 10° SE visible
26 Sep 9.4 06:55:53 10° NE 06:58:42 23° E 07:01:31 10° SSE visible
27 Sep 10.3 06:32:29 10° ENE 06:33:20 11° E 06:34:09 10° ESE visible
30 Sep 9.7 06:48:35 10° NE 06:51:06 19° E 06:53:38 10° SE visible
